Marshfield, WI

5:47 PM CDT on June 27, 2017 (GMT -0500)
Marshfield Municipal

Weather History for KMFI - November, 2012

Change the Weather History Date:

Saturday, November 17, 2012

  Actual Average Record
Temperature  
Mean Temperature 43 °F -  
Max Temperature 52 °F 41 °F 70 °F (1953)
Min Temperature 34 °F 26 °F -7 °F (1959)
Degree Days  
Heating Degree Days 22    
Moisture  
Dew Point 35 °F    
Average Humidity 83    
Maximum Humidity 100    
Minimum Humidity 53    
Precipitation  
Precipitation 0.00 in - - ()
Sea Level Pressure  
Sea Level Pressure 30.42 in    
Wind  
Wind Speed 9 mph (SSE)    
Max Wind Speed 15 mph    
Max Gust Speed 22 mph    
Visibility 5 miles    
Events Fog    
Averages and records for this station are not official NWS values.
T = Trace of Precipitation, MM = Missing Value Source: NWS Daily Summary

Daily Weather History Graph

Daily Weather History Graph

Search for Another Location

Airport or City:

Trip Planner

Search our weather history database for the weather conditions in past years. The results will help you decide how hot, cold, wet, or windy it might be!

Date:

Astronomy

Nov. 17, 2012 Rise Set
Actual Time 7:00 AM CST 4:30 PM CST
Civil Twilight 6:29 AM CST 5:02 PM CST
Nautical Twilight 5:53 AM CST 5:37 PM CST
Astronomical Twilight 5:18 AM CST 6:12 PM CST
Moon 10:45 AM CST (11/17) 8:41 PM CST (11/17)
Length of Visible Light 10h 33m
Length of Day
9h 29m
Waxing Crescent, 20% of the Moon is Illuminated
Nov 17
Waxing Crescent
Nov 20
First Quarter
Nov 28
Full
Dec 6
Last Quarter
Dec 13
New

Hourly Weather History & Observations

Time (CST) Temp. Windchill Dew Point Humidity Pressure Visibility Wind Dir Wind Speed Gust Speed Precip Events Conditions
12:54 AM 35.1 °F 27.9 °F 35.1 °F 100% 30.45 in 0.2 mi South 9.2 mph - N/A Fog Fog
1:54 AM 36.0 °F 30.3 °F 36.0 °F 100% 30.47 in 0.2 mi South 6.9 mph - N/A Fog Fog
2:54 AM 36.0 °F 29.6 °F 35.1 °F 97% 30.46 in 1.0 mi South 8.1 mph - N/A   Overcast
3:02 AM 35.6 °F 29.2 °F 35.6 °F 100% 30.42 in 0.8 mi South 8.1 mph - N/A   Overcast
3:54 AM 35.1 °F 28.6 °F 35.1 °F 100% 30.45 in 0.5 mi SSE 8.1 mph - N/A Fog Fog
4:54 AM 35.1 °F 28.6 °F 35.1 °F 100% 30.46 in 0.2 mi SSE 8.1 mph - N/A Fog Fog
5:54 AM 35.1 °F 27.9 °F 34.0 °F 96% 30.47 in 0.2 mi South 9.2 mph - N/A Fog Fog
6:54 AM 34.0 °F 27.2 °F 34.0 °F 100% 30.47 in 0.2 mi SSE 8.1 mph - N/A Fog Fog
7:54 AM 34.0 °F 26.0 °F 34.0 °F 100% 30.47 in 0.2 mi SSE 10.4 mph - N/A Fog Fog
8:54 AM 35.1 °F 26.9 °F 35.1 °F 100% 30.47 in 0.2 mi South 11.5 mph - N/A Fog Fog
9:54 AM 36.0 °F 28.5 °F 36.0 °F 100% 30.47 in 0.5 mi SSE 10.4 mph - N/A Fog Fog
10:16 AM 37.4 °F 30.8 °F 35.6 °F 93% 30.42 in 1.2 mi SSE 9.2 mph - N/A   Overcast
10:44 AM 37.4 °F 30.8 °F 37.4 °F 100% 30.41 in 2.0 mi South 9.2 mph - N/A   Mostly Cloudy
10:52 AM 39.2 °F 32.5 °F 35.6 °F 87% 30.41 in 2.5 mi South 10.4 mph - N/A   Scattered Clouds
10:54 AM 39.0 °F 32.8 °F 36.0 °F 89% 30.45 in 3.0 mi South 9.2 mph - N/A   Partly Cloudy
11:54 AM 46.0 °F 41.9 °F 37.0 °F 71% 30.43 in 5.0 mi South 8.1 mph - N/A   Haze
12:54 PM 51.1 °F - 36.0 °F 56% 30.40 in 10.0 mi South 12.7 mph - N/A   Clear
1:54 PM 52.0 °F - 35.1 °F 53% 30.38 in 10.0 mi South 13.8 mph 21.9 mph N/A   Clear
2:54 PM 51.1 °F - 36.0 °F 56% 30.38 in 10.0 mi South 11.5 mph - N/A   Clear
3:54 PM 48.9 °F - 35.1 °F 59% 30.39 in 10.0 mi South 15.0 mph - N/A   Clear
4:54 PM 46.0 °F 42.5 °F 34.0 °F 63% 30.39 in 10.0 mi SSE 6.9 mph - N/A   Clear
5:54 PM 44.1 °F 39.5 °F 34.0 °F 68% 30.39 in 10.0 mi SSE 8.1 mph - N/A   Clear
6:54 PM 44.1 °F 39.0 °F 34.0 °F 68% 30.39 in 10.0 mi South 9.2 mph - N/A   Clear
7:54 PM 43.0 °F 36.8 °F 34.0 °F 71% 30.39 in 10.0 mi South 11.5 mph - N/A   Clear
8:54 PM 42.1 °F 37.1 °F 34.0 °F 73% 30.39 in 9.0 mi SSE 8.1 mph - N/A   Clear
9:54 PM 41.0 °F 35.8 °F 33.1 °F 73% 30.39 in 8.0 mi South 8.1 mph - N/A   Clear
10:54 PM 41.0 °F 35.2 °F 32.0 °F 70% 30.38 in 8.0 mi South 9.2 mph - N/A   Clear
11:54 PM 37.9 °F 32.7 °F 32.0 °F 79% 30.39 in 8.0 mi South 6.9 mph - N/A   Clear